This is the latest recevied weather packets stored in our database for station/object JA0BES-13. If no packets are shown the sender has not sent any weather packets the latest 10 day(s).
| Time | Temp. | Humidity | Pressure | Rain* | Wind** | Luminosity | Snow |
|---|---|---|---|---|---|---|---|
| 1788574605 | 28.89° C | 80% | 1012.3 hPa | 0 mm | - | - | - |
| 1788574004 | 28.33° C | 82% | 1012.2 hPa | 0 mm | - | - | - |
| 1788573404 | 28.33° C | 83% | 1012.4 hPa | 0 mm | - | - | - |
| 1788572803 | 27.78° C | 84% | 1012.9 hPa | 0 mm | - | - | - |
| 1788572203 | 27.78° C | 85% | 1012.8 hPa | 0 mm | - | - | - |
| 1788571603 | 27.22° C | 87% | 1012.9 hPa | 0 mm | - | - | - |
| 1788571003 | 26.67° C | 87% | 1013.2 hPa | 0 mm | - | - | - |
| 1788570402 | 26.11° C | 91% | 1012.6 hPa | 0 mm | - | - | - |
| 1788569802 | 25.56° C | 91% | 1012.9 hPa | 0 mm | - | - | - |
| 1788569201 | 25.56° C | 93% | 1012.9 hPa | 0 mm | - | - | - |
| 1788568601 | 25° C | 99% | 1013.1 hPa | 0 mm | - | - | - |
| 1788568000 | 24.44° C | 100% | 1013.2 hPa | 0 mm | - | - | - |
| 1788567400 | 23.89° C | 100% | 1013.1 hPa | 0 mm | - | - | - |
| 1788566800 | 23.33° C | 100% | 1013.1 hPa | 0 mm | - | - | - |
| 1788566200 | 23.33° C | 100% | 1012.9 hPa | 0 mm | - | - | - |
| 1788565599 | 22.22° C | 100% | 1013 hPa | 0 mm | - | - | - |
| 1788564999 | 22.22° C | 100% | 1013 hPa | 0 mm | - | - | - |
| 1788564398 | 21.67° C | 100% | 1013.1 hPa | 0 mm | - | - | - |
| 1788563798 | 21.11° C | 100% | 1012.9 hPa | 0 mm | - | - | - |
| 1788563198 | 20.56° C | 100% | 1012.9 hPa | 0 mm | - | - | - |
| 1788562597 | 20.56° C | 100% | 1012.7 hPa | 0 mm | - | - | - |
| 1788561997 | 20° C | 100% | 1012.7 hPa | 0 mm | - | - | - |
| 1788561397 | 19.44° C | 100% | 1012.8 hPa | 0 mm | - | - | - |
| 1788560796 | 19.44° C | 100% | 1012.8 hPa | 0 mm | - | - | - |
| 1788560196 | 19.44° C | 100% | 1013 hPa | 0 mm | - | - | - |
* Rain since midnight (hover to see other rain measurements)
** Current wind speed in m/s (hover to see current wind gust speed)